Sparta, TN

2:05 AM CST on December 14, 2019 (GMT -0600)
Upper Cumberland Regional

Weather History for KSRB - October, 2019

Change the Weather History Date:

Thursday, October 17, 2019

  Actual Average (KCSV) Record (KCSV)
Temperature  
Mean Temperature 46 °F -  
Max Temperature 59 °F 67 °F 79 °F (1963)
Min Temperature 32 °F 44 °F 28 °F (1991)
Degree Days  
Heating Degree Days 20    
Moisture  
Dew Point 37 °F    
Average Humidity 77    
Maximum Humidity 100    
Minimum Humidity 44    
Precipitation  
Precipitation 0.00 in - - ()
Sea Level Pressure  
Sea Level Pressure 30.03 in    
Wind  
Wind Speed 1 mph ()    
Max Wind Speed 9 mph    
Max Gust Speed 13 mph    
Visibility 9.1 miles    
Events      
Averages and records for this station are not official NWS values.
T = Trace of Precipitation, MM = Missing Value Source: Averaged Metar Reports

Daily Weather History Graph

Daily Weather History Graph

Search for Another Location

Airport or City:

Astronomy

Oct. 17, 2019 Rise Set
Actual Time 6:50 AM CDT 6:03 PM CDT
Civil Twilight 6:24 AM CDT 6:29 PM CDT
Nautical Twilight 5:54 AM CDT 6:59 PM CDT
Astronomical Twilight 5:25 AM CDT 7:29 PM CDT
Moon 8:41 PM CDT (10/17) 10:16 AM CDT (10/17)
Length of Visible Light 12h 05m
Length of Day
11h 13m
Waning Gibbous, 86% of the Moon is Illuminated
Oct 17
Waning Gibbous
Oct 21
Last Quarter
Oct 27
New
Nov 4
First Quarter
Nov 12
Full

Hourly Weather History & Observations

Time (CDT) Temp. Windchill Dew Point Humidity Pressure Visibility Wind Dir Wind Speed Gust Speed Precip Events Conditions
12:15 AM 41.0 °F - 39.2 °F 93% 30.03 in 10.0 mi Calm Calm - N/A   Overcast
12:35 AM 39.2 °F - 37.4 °F 93% 30.03 in 10.0 mi Calm Calm - N/A   Overcast
12:55 AM 37.4 °F - 35.6 °F 93% 30.02 in 10.0 mi Calm Calm - N/A   Overcast
1:15 AM 37.4 °F - 35.6 °F 93% 30.03 in 10.0 mi Calm Calm - N/A   Mostly Cloudy
1:55 AM 37.4 °F - 35.6 °F 93% 30.03 in 10.0 mi Calm Calm - N/A   Clear
2:15 AM 35.6 °F - 33.8 °F 93% 30.03 in 10.0 mi Calm Calm - N/A   Clear
2:35 AM 35.6 °F - 33.8 °F 93% 30.03 in 10.0 mi Calm Calm - N/A   Clear
2:55 AM 33.8 °F - 33.8 °F 100% 30.02 in 10.0 mi Calm Calm - N/A   Clear
3:15 AM 35.6 °F - 33.8 °F 93% 30.03 in 1.8 mi Calm Calm - N/A   Clear
3:35 AM 33.8 °F - 33.8 °F 100% 30.02 in 10.0 mi Calm Calm - N/A   Clear
3:55 AM 33.8 °F - 33.8 °F 100% 30.03 in 8.0 mi Calm Calm - N/A   Clear
4:15 AM 33.8 °F - 33.8 °F 100% 30.03 in 1.2 mi Calm Calm - N/A   Clear
4:35 AM 35.6 °F - 33.8 °F 93% 30.03 in 9.0 mi Calm Calm - N/A   Clear
4:55 AM 33.8 °F - 33.8 °F 100% 30.03 in 5.0 mi Calm Calm - N/A   Clear
5:15 AM 33.8 °F - 32.0 °F 93% 30.03 in 6.0 mi Calm Calm - N/A   Clear
5:35 AM 33.8 °F - 33.8 °F 100% 30.03 in 5.0 mi Calm Calm - N/A   Clear
5:55 AM 33.8 °F - 32.0 °F 93% 30.03 in 3.0 mi Calm Calm - N/A   Clear
6:15 AM 33.8 °F - 32.0 °F 93% 30.03 in 4.0 mi Calm Calm - N/A   Clear
6:35 AM 33.8 °F - 32.0 °F 93% 30.04 in 10.0 mi Calm Calm - N/A   Clear
6:55 AM 32.0 °F - 32.0 °F 100% 30.05 in 4.0 mi Calm Calm - N/A   Clear
7:35 AM 35.6 °F - 35.6 °F 100% 30.05 in 7.0 mi Calm Calm - N/A   Clear
7:55 AM 39.2 °F - 37.4 °F 93% 30.06 in 10.0 mi Calm Calm - N/A   Clear
8:15 AM 41.0 °F - 39.2 °F 93% 30.06 in - Calm Calm - N/A   Unknown
8:35 AM 42.8 °F - 41.0 °F 93% 30.07 in 1.2 mi Calm Calm - N/A   Clear
8:55 AM 44.6 °F - 41.0 °F 87% 30.08 in 10.0 mi Calm Calm - N/A   Clear
9:15 AM 46.4 °F - 41.0 °F 81% 30.08 in 10.0 mi Calm Calm - N/A   Clear
9:35 AM 48.2 °F - 41.0 °F 76% 30.08 in 10.0 mi Calm Calm - N/A   Clear
9:55 AM 48.2 °F - 41.0 °F 76% 30.07 in 10.0 mi Calm Calm - N/A   Clear
10:15 AM 50.0 °F - 39.2 °F 66% 30.07 in 10.0 mi Variable 4.6 mph - N/A   Clear
10:35 AM 51.8 °F - 39.2 °F 62% 30.07 in 10.0 mi NE 5.8 mph - N/A   Partly Cloudy
10:55 AM 51.8 °F - 37.4 °F 58% 30.06 in 10.0 mi Variable 5.8 mph - N/A   Clear
11:15 AM 53.6 °F - 37.4 °F 54% 30.06 in 10.0 mi NNE 6.9 mph 12.7 mph N/A   Clear
11:35 AM 53.6 °F - 35.6 °F 51% 30.06 in 10.0 mi North 8.1 mph - N/A   Clear
11:55 AM 53.6 °F - 35.6 °F 51% 30.05 in 10.0 mi Variable 4.6 mph 11.5 mph N/A   Clear
12:15 PM 55.4 °F - 35.6 °F 47% 30.05 in 10.0 mi Calm Calm - N/A   Clear
12:35 PM 55.4 °F - 35.6 °F 47% 30.05 in 10.0 mi NE 6.9 mph - N/A   Clear
12:55 PM 55.4 °F - 35.6 °F 47% 30.04 in 10.0 mi North 9.2 mph - N/A   Clear
1:15 PM 57.2 °F - 35.6 °F 44% 30.04 in 10.0 mi North 9.2 mph - N/A   Clear
1:35 PM 57.2 °F - 35.6 °F 44% 30.04 in 10.0 mi Calm Calm - N/A   Clear
1:55 PM 57.2 °F - 35.6 °F 44% 30.02 in 10.0 mi Calm Calm - N/A   Clear
2:15 PM 59.0 °F - 37.4 °F 45% 30.02 in 10.0 mi Variable 5.8 mph 11.5 mph N/A   Clear
2:35 PM 59.0 °F - 37.4 °F 45% 30.01 in 10.0 mi Variable 4.6 mph - N/A   Clear
2:55 PM 59.0 °F - 37.4 °F 45% 30.01 in 10.0 mi Calm Calm - N/A   Clear
3:15 PM 59.0 °F - 37.4 °F 45% 30.00 in 10.0 mi Calm Calm - N/A   Clear
3:35 PM 59.0 °F - 37.4 °F 45% 30.00 in 10.0 mi NW 5.8 mph - N/A   Clear
3:55 PM 59.0 °F - 37.4 °F 45% 30.00 in 10.0 mi NW 8.1 mph - N/A   Clear
4:15 PM 59.0 °F - 37.4 °F 45% 29.99 in 10.0 mi Calm Calm - N/A   Clear
4:35 PM 59.0 °F - 37.4 °F 45% 29.99 in 10.0 mi North 4.6 mph - N/A   Clear
4:55 PM 59.0 °F - 37.4 °F 45% 29.99 in 10.0 mi West 5.8 mph - N/A   Clear
5:15 PM 59.0 °F - 37.4 °F 45% 30.00 in 10.0 mi Calm Calm - N/A   Clear
5:35 PM 57.2 °F - 37.4 °F 48% 30.00 in 10.0 mi West 4.6 mph - N/A   Clear
5:55 PM 55.4 °F - 39.2 °F 54% 30.00 in 10.0 mi Calm Calm - N/A   Clear
6:15 PM 48.2 °F - 41.0 °F 76% 30.01 in 10.0 mi Calm Calm - N/A   Clear
6:35 PM 44.6 °F - 39.2 °F 81% 30.02 in 10.0 mi Calm Calm - N/A   Clear
6:55 PM 42.8 °F - 39.2 °F 87% 30.02 in 10.0 mi Calm Calm - N/A   Clear
7:15 PM 42.8 °F - 39.2 °F 87% 30.02 in 10.0 mi Calm Calm - N/A   Clear
7:35 PM 42.8 °F 40.1 °F 39.2 °F 87% 30.02 in 10.0 mi NE 4.6 mph - N/A   Clear
7:55 PM 42.8 °F - 39.2 °F 87% 30.03 in 10.0 mi Calm Calm - N/A   Clear
8:15 PM 41.0 °F - 39.2 °F 93% 30.02 in 10.0 mi Calm Calm - N/A   Clear
8:35 PM 39.2 °F - 37.4 °F 93% 30.02 in 10.0 mi Calm Calm - N/A   Clear
8:55 PM 39.2 °F - 37.4 °F 93% 30.02 in 10.0 mi Calm Calm - N/A   Clear
9:15 PM 39.2 °F - 37.4 °F 93% 30.02 in 10.0 mi Calm Calm - N/A   Clear
9:35 PM 39.2 °F - 37.4 °F 93% 30.02 in 10.0 mi Calm Calm - N/A   Clear
9:55 PM 41.0 °F - 39.2 °F 93% 30.02 in 10.0 mi Calm Calm - N/A   Clear
10:15 PM 41.0 °F 37.1 °F 39.2 °F 93% 30.01 in 10.0 mi NE 5.8 mph - N/A   Clear
10:35 PM 39.2 °F - 39.2 °F 100% 30.02 in 10.0 mi Calm Calm - N/A   Clear
10:55 PM 37.4 °F 33.8 °F 35.6 °F 93% 30.01 in 10.0 mi NE 4.6 mph - N/A   Clear
11:15 PM 39.2 °F 37.0 °F 39.2 °F 100% 30.01 in 10.0 mi NE 3.5 mph - N/A   Clear
11:35 PM 39.2 °F - 37.4 °F 93% 30.01 in 10.0 mi Calm Calm - N/A   Clear
11:55 PM 37.4 °F - 35.6 °F 93% 30.00 in 10.0 mi Calm Calm - N/A   Clear